Flag for Germany Weather past 2 weeks in Calw, Baden-Württemberg, Germany

Now
54 °F

Overcast.


Feels Like: 54 °F
Forecast: 49 / 64 °F
Wind: 3 mph from Northeast

Location: Stuttgart-Echterdingen

Current Time: Apr 25, 2015 at 1:00:20 PM

Latest Report: Apr 25, 2015 at 12:00 PM


Visibility: 37 mi

Pressure: 29.88 "Hg

Humidity: 74%

Dew point: 46 °F

Location of CalwLocation

Historic Weather in Calw — Graph

°F

Calw temperature yesterday

Maximum temperature yesterday: 69 °F (at 4:00 PM)
Minimum temperature yesterday: 35 °F (at 7:00 AM)
Average temperature yesterday: 53 °F

Past Weeks' High & Low Weather Summary

 TemperatureHumidityPressure
High77 °F (Apr 15, 4:00 PM)87% (Apr 23, 7:00 AM)30.47 "Hg (Apr 23, 7:00 AM)
Low34 °F (Apr 23, 7:00 AM)17% (Apr 15, 3:00 PM)29.86 "Hg (Apr 16, 7:00 PM)
Average54 °F55%30.18 "Hg
* Reported Apr 10 12:00 Noon — Apr 25 12:00 Noon, Calw, Weather by CustomWeather, © 2015

Note: Actual official high and low records may vary slightly from our data, if they occured in-between our weather recording intervals... More about our weather records

Advertising

Calw weather history for previous 24 hours

 ConditionsComfort  
Time TempWeatherWind HumidityBarometerVisibility
12:00 PM
Sat, Apr 25
54 °FOvercast.3 mph74%29.88 "Hg37 mi
10:00 AM54 °FLight rain. Overcast.1 mph57%29.89 "Hg34 mi
9:00 AM51 °FLight rain. Overcast.1 mph62%29.89 "Hg34 mi
8:00 AM46 °FOvercast.2 mph73%29.90 "Hg40 mi
7:00 AM42 °FOvercast.No wind86%29.90 "Hg34 mi
6:00 AM41 °FPassing clouds.1 mph85%29.89 "Hg25 mi
3:00 AM44 °FPassing clouds.1 mph71%29.91 "Hg22 mi
1:00 AM48 °FPassing clouds.1 mph66%29.93 "Hg22 mi
12:00 AM50 °FPassing clouds.2 mph61%29.93 "Hg25 mi
10:00 PM
Fri, Apr 24
58 °FPassing clouds.1 mph47%29.91 "Hg25 mi
9:00 PM61 °FPassing clouds.2 mph39%29.90 "Hg25 mi
8:00 PM64 °FPartly sunny.3 mph37%29.89 "Hg28 mi
7:00 PM66 °FScattered clouds.3 mph34%29.88 "Hg28 mi
6:00 PM67 °FPassing clouds.3 mph30%29.88 "Hg28 mi
4:00 PM69 °FPassing clouds.2 mph27%29.90 "Hg31 mi
3:00 PM67 °FPassing clouds.2 mph23%29.92 "Hg31 mi
2:00 PM65 °FPassing clouds.2 mph24%29.94 "Hg31 mi
1:00 PM63 °FSunny.2 mph31%29.97 "Hg28 mi
Weather by CustomWeather, © 2015

See weather overviewHow to use our weather pages